Location: Rounton
(54.4000°N, 1.3500°W)
Time: 05:51:27
(UTC+00:00)

A-11 Canister half - Pass Details

Date: 09 December 2021
Orbit: 1516 x 1684 km, 47.2° (Epoch: 21 January)

Event Time Altitude Azimuth Distance (km) Brightness Sun altitude
Rises 07:22:26 0° 244° (WSW) 4,759 11.2 -7.0°
Reaches altitude 10° 07:25:33 10° 240° (WSW) 3,798 10.8 -6.6°
Maximum altitude 07:34:51 54° 167° (SSE) 1,922 9.9 -5.5°
Drops below altitude 10° 07:44:29 10° 94° (E) 3,922 12.2 -4.3°
Sets 07:47:45 0° 90° (E) 4,923 12.7 -3.9°
